Flag for Germany Weather past 2 weeks in Strausberg, Brandenburg, Germany

Now
34 °F

Fog.


Feels Like: 26 °F
Forecast: 33 / 37 °F
Wind: 10 mph from West

Location: Berlin-Schoenefeld

Current Time: Jan 28, 2015 at 5:55:42 AM

Latest Report: Jan 28, 2015 at 5:20 AM


Visibility: 1 mi

Pressure: 29.98 "Hg

Humidity: 100%

Dew point: 34 °F

Location of StrausbergLocation

Historic Weather in Strausberg — Graph

°F

Strausberg temperature yesterday

Maximum temperature yesterday: 39 °F (at 1:50 AM)
Minimum temperature yesterday: 30 °F (at 10:50 PM)
Average temperature yesterday: 37 °F

Past Weeks' High & Low Weather Summary

 TemperatureHumidityPressure
High54 °F (Jan 13, 8:20 PM)100% (Jan 14, 9:50 PM)30.30 "Hg (Jan 14, 9:50 PM)
Low25 °F (Jan 19, 4:20 AM)54% (Jan 13, 6:20 PM)29.59 "Hg (Jan 15, 6:50 PM)
Average36 °F90%29.96 "Hg
* Reported Jan 13 4:20 AM — Jan 28 4:20 AM, Strausberg, Weather by CustomWeather, © 2014

Note: Actual official high and low records may vary slightly from our data, if they occured in-between our weather recording intervals... More about our weather records

Advertising

Strausberg weather history for previous 24 hours

 ConditionsComfort  
Time TempWeatherWind HumidityBarometerVisibility
4:20 AM
Jan 28
34 °FFog.9 mph100%29.98 "Hg1 mi
3:50 AM34 °FFog.10 mph100%30.01 "Hg1 mi
3:20 AM34 °FPassing clouds.12 mph100%30.01 "Hg5 mi
2:50 AM34 °FPassing clouds.9 mph100%30.01 "HgN/A
2:20 AM34 °FPassing clouds.10 mph100%30.01 "HgN/A
1:50 AM32 °FPassing clouds.9 mph100%30.01 "HgN/A
1:20 AM30 °FPassing clouds.12 mph100%30.01 "HgN/A
12:50 AM28 °FPassing clouds.8 mph100%30.01 "HgN/A
12:20 AM28 °FClear.8 mph100%30.01 "Hg10 mi
11:50 PM
Jan 27
30 °FClear.8 mph93%30.01 "Hg10 mi
11:20 PM30 °FClear.7 mph93%30.01 "Hg10 mi
10:50 PM30 °FClear.7 mph93%30.01 "Hg10 mi
10:20 PM32 °FPassing clouds.8 mph93%30.01 "HgN/A
9:50 PM34 °FPassing clouds.8 mph87%30.01 "HgN/A
9:20 PM36 °FPassing clouds.9 mph87%30.01 "HgN/A
8:50 PM37 °FPassing clouds.9 mph87%30.01 "HgN/A
8:20 PM39 °FPartly cloudy.13 mph81%30.01 "HgN/A
7:50 PM39 °FPartly cloudy.12 mph81%29.98 "HgN/A
7:20 PM39 °FPartly cloudy.13 mph81%29.98 "HgN/A
6:50 PM39 °FPassing clouds.15 mph81%29.98 "HgN/A
6:20 PM39 °FPartly cloudy.13 mph81%29.98 "HgN/A
5:50 PM39 °FPassing clouds.15 mph81%29.98 "HgN/A
5:20 PM39 °FLight rain. Partly cloudy.12 mph81%29.95 "HgN/A
4:50 PM39 °FLight rain. Partly cloudy.12 mph87%29.95 "HgN/A
4:20 PM39 °FLight rain. Partly sunny.12 mph87%29.95 "HgN/A
3:50 PM39 °FPartly sunny.17 mph87%29.95 "HgN/A
3:20 PM39 °FLight rain. Broken clouds.16 mph81%29.92 "HgN/A
2:50 PM39 °FPartly sunny.15 mph87%29.92 "HgN/A
2:20 PM39 °FBroken clouds.14 mph87%29.92 "HgN/A
1:50 PM39 °FBroken clouds.15 mph87%29.92 "HgN/A
1:20 PM39 °FLight rain. Broken clouds.14 mph87%29.92 "HgN/A
12:50 PM39 °FLight rain. Broken clouds.15 mph87%29.92 "HgN/A
12:20 PM39 °FLight rain. Broken clouds.15 mph87%29.92 "HgN/A
11:50 AM39 °FBroken clouds.14 mph87%29.92 "HgN/A
11:20 AM37 °FLight rain. Broken clouds.14 mph93%29.92 "HgN/A
10:50 AM37 °FLight rain. Broken clouds.13 mph93%29.92 "HgN/A
10:20 AM37 °FLight rain. Broken clouds.14 mph93%29.89 "HgN/A
9:50 AM37 °FLight rain. Broken clouds.15 mph93%29.89 "HgN/A
9:20 AM37 °FLight rain. Broken clouds.15 mph93%29.89 "HgN/A
8:50 AM37 °FLight rain. Partly sunny.15 mph100%29.89 "HgN/A
8:20 AM37 °FLight rain. Broken clouds.15 mph93%29.86 "HgN/A
7:50 AM37 °FLight rain. Passing clouds.15 mph93%29.86 "HgN/A
7:20 AM37 °FLight rain. Passing clouds.16 mph93%29.86 "HgN/A
6:50 AM37 °FLight rain. Passing clouds.15 mph93%29.86 "HgN/A
6:20 AM37 °FLight rain. Passing clouds.15 mph93%29.83 "HgN/A
5:50 AM37 °FLight rain. Partly cloudy.17 mph93%29.83 "HgN/A
5:20 AM37 °FLight rain. Passing clouds.16 mph93%29.83 "HgN/A
Weather by CustomWeather, © 2014

See weather overviewHow to use our weather pages